Location: Shenandoah County Park
(38.9356°N, 78.4524°W)
Time: 22:10:11
(UTC-04:00)

Vanguard 2 - All Passes

Search period start: 15 September 2024 00:00
Search period end: 25 September 2024 00:00
Orbit: 552 x 2911 km, 32.9° (Epoch: 15 September)

Date Brightness Start Highest point End Pass type
(mag) Time Alt. Az. Time Alt. Az. Time Alt. Az.
15 Sep - 04:45:18 10° SW 04:49:55 38° SSE 04:56:51 10° E visible
15 Sep - 06:51:46 10° WSW 06:58:02 57° S 07:08:31 10° ESE daylight
15 Sep - 08:59:12 10° W 09:07:17 44° SSW 09:20:02 10° SE daylight
15 Sep - 11:08:44 10° WSW 11:17:17 24° SSW 11:28:28 10° SSE daylight
16 Sep - 02:54:19 10° S 02:56:38 14° SE 02:59:17 10° ESE visible
16 Sep - 04:58:57 10° WSW 05:03:40 44° SSE 05:10:54 10° E visible
16 Sep - 07:05:38 10° W 07:11:55 54° S 07:22:24 10° ESE daylight
16 Sep - 09:13:17 10° W 09:21:12 38° SSW 09:33:18 10° SE daylight
16 Sep - 11:23:58 10° WSW 11:31:11 18° SSW 11:40:04 10° S daylight
17 Sep - 03:07:08 10° SSW 03:10:13 19° SSE 03:13:56 10° ESE visible
17 Sep - 05:12:40 10° WSW 05:17:28 48° S 05:24:54 10° E visible
17 Sep - 07:19:31 10° W 07:25:49 49° S 07:36:10 10° ESE daylight
17 Sep - 09:27:31 10° W 09:35:07 31° SSW 09:46:17 10° SSE daylight
17 Sep - 11:40:31 10° SW 11:45:05 12° SSW 11:50:13 10° SSW daylight
18 Sep - 03:20:22 10° SSW 03:23:51 25° SSE 03:28:14 10° ESE visible
18 Sep - 05:26:27 10° WSW 05:31:18 50° S 05:38:51 10° ESE visible
18 Sep - 07:33:28 10° W 07:39:43 43° SSW 07:49:48 10° SE daylight
18 Sep - 09:41:59 10° WSW 09:49:02 25° SSW 09:58:53 10° SSE daylight
19 Sep - 03:33:50 10° SW 03:37:32 31° SSE 03:42:20 10° E visible
19 Sep - 05:40:16 10° WSW 05:45:08 49° S 05:52:45 10° ESE visible
19 Sep - 07:47:29 10° W 07:53:37 37° SSW 08:03:14 10° SE daylight
19 Sep - 09:56:51 10° WSW 10:02:58 19° SSW 10:10:57 10° S daylight
20 Sep - 01:42:50 10° S 01:44:13 11° SSE 01:45:37 10° SE night (unlit)
20 Sep - 03:47:26 10° SW 03:51:16 36° SSE 03:56:21 10° E visible
20 Sep - 05:54:08 10° WSW 05:59:00 45° S 06:06:34 10° ESE visible
20 Sep - 08:01:37 10° WSW 08:07:31 30° SSW 08:16:26 10° SE daylight
20 Sep - 10:12:39 10° SW 10:16:54 13° SSW 10:21:55 10° S daylight
21 Sep - 01:55:18 10° SSW 01:57:52 16° SSE 02:00:31 10° ESE night (unlit)
21 Sep - 04:01:09 10° WSW 04:05:03 40° S 04:10:18 10° ESE visible
21 Sep - 06:08:01 10° WSW 06:12:52 40° S 06:20:16 10° ESE visible
21 Sep - 08:15:55 10° WSW 08:21:27 24° SSW 08:29:18 10° SSE daylight
22 Sep - 02:08:28 10° SSW 02:11:33 22° SSE 02:14:49 10° ESE night (unlit)
22 Sep - 04:14:54 10° WSW 04:18:51 41° S 04:24:11 10° ESE visible
22 Sep - 06:21:58 10° WSW 06:26:43 34° SSW 06:33:49 10° SE visible
22 Sep - 08:30:36 10° WSW 08:35:23 18° SSW 08:41:40 10° SSE daylight
23 Sep - 02:21:53 10° SW 02:25:17 27° SSE 02:28:55 10° ESE night (unlit)
23 Sep - 04:28:42 10° WSW 04:32:40 40° S 04:38:01 10° ESE visible
23 Sep - 06:36:01 10° WSW 06:40:35 28° SSW 06:47:10 10° SE visible
23 Sep - 08:46:07 10° SW 08:49:17 13° SSW 08:53:03 10° S daylight
24 Sep - 00:29:41 10° S 00:31:43 13° SSE 00:33:36 10° SE night (unlit)
24 Sep - 02:35:28 10° SW 02:39:02 32° S 02:42:53 10° ESE night (unlit)
24 Sep - 04:42:34 10° WSW 04:46:29 37° S 04:51:45 10° ESE visible
24 Sep - 06:50:15 10° WSW 06:54:28 22° SSW 07:00:14 10° SSE daylight
